STARLINK-36754

Last updated on Sat Mar 14 2026 00:02:06 GMT+0000 (Coordinated Universal Time)

1 67725U 26026E 26072.58334491 .00099240 00000+0 29613-2 0 9993 2 67725 97.2851 127.0731 0001783 102.7676 82.2302 15.34238341 5949
UTC large
Height (km)
Speed (km/s)
/
Latitude / Longitude
Inclination (degrees)
Orbital Period (minutes)
Azimuth
Elevation
Range (km)
Doppler Factor

Next 0 passes for location: London (51.5072 / 0.1276)

Sorry there are no passes over London.